Bettles, AK

4:36 PM AKST on November 15, 2019 (GMT -0900)
Bettles

Weather History for PABT - October, 2019

Change the Weather History Date:

Saturday, October 12, 2019

  Actual Average Record
Temperature  
Mean Temperature 14 °F -  
Max Temperature 25 °F 28 °F 53 °F (2016)
Min Temperature 3 °F 14 °F -6 °F (1961)
Degree Days  
Heating Degree Days 52    
Moisture  
Dew Point 10 °F    
Average Humidity 81    
Maximum Humidity 89    
Minimum Humidity 57    
Precipitation  
Precipitation 0.00 in - - ()
Snow  
Snow 0.00 in - - ()
Snow Depth 3.00 in    
Sea Level Pressure  
Sea Level Pressure 30.18 in    
Wind  
Wind Speed 1 mph (ENE)    
Max Wind Speed 6 mph    
Max Gust Speed -    
Visibility 10 miles    
Events Snow    
Averages and records for this station are not official NWS values.
T = Trace of Precipitation, MM = Missing Value Source: NWS Daily Summary

Daily Weather History Graph

Daily Weather History Graph

Search for Another Location

Airport or City:

Astronomy

Oct. 12, 2019 Rise Set
Actual Time 8:55 AM AKDT 6:48 PM AKDT
Civil Twilight 8:01 AM AKDT 7:42 PM AKDT
Nautical Twilight 6:59 AM AKDT 8:43 PM AKDT
Astronomical Twilight 5:55 AM AKDT 9:47 PM AKDT
Moon 7:32 PM AKDT (10/12) 6:43 AM AKDT (10/12)
Length of Visible Light 11h 40m
Length of Day
9h 52m
Waxing Gibbous, 99% of the Moon is Illuminated
Oct 12
Waxing Gibbous
Oct 13
Full
Oct 21
Last Quarter
Oct 27
New
Nov 4
First Quarter

Hourly Weather History & Observations

Time (AKDT) Temp. Windchill Dew Point Humidity Pressure Visibility Wind Dir Wind Speed Gust Speed Precip Events Conditions
12:53 AM 15.1 °F - 10.9 °F 84% 30.06 in 10.0 mi Calm Calm - N/A   Clear
2:53 AM 10.0 °F - 6.1 °F 84% 30.10 in 10.0 mi Calm Calm - N/A   Clear
3:53 AM 10.0 °F 3.6 °F 6.1 °F 84% 30.11 in 10.0 mi NE 3.5 mph - N/A   Clear
4:53 AM 9.0 °F 2.4 °F 6.1 °F 88% 30.13 in 10.0 mi North 3.5 mph - N/A   Clear
5:53 AM 5.0 °F - 1.0 °F 84% 30.14 in 10.0 mi Calm Calm - N/A   Partly Cloudy
6:53 AM 5.0 °F - 1.0 °F 84% 30.17 in 10.0 mi Calm Calm - N/A   Partly Cloudy
7:53 AM 3.9 °F - -0.0 °F 84% 30.18 in 10.0 mi Calm Calm - N/A   Partly Cloudy
8:53 AM 6.1 °F - 1.0 °F 80% 30.19 in 10.0 mi Calm Calm - N/A   Partly Cloudy
9:53 AM 6.1 °F -0.9 °F 1.0 °F 80% 30.20 in 10.0 mi North 3.5 mph - N/A   Partly Cloudy
10:53 AM 12.0 °F - 8.1 °F 84% 30.21 in 10.0 mi Calm Calm - N/A   Partly Cloudy
11:53 AM 17.1 °F - 10.9 °F 77% 30.22 in 10.0 mi Calm Calm - N/A   Partly Cloudy
12:53 PM 18.0 °F - 12.9 °F 81% 30.23 in 10.0 mi Calm Calm - N/A   Scattered Clouds
1:53 PM 21.9 °F - 14.0 °F 72% 30.23 in 10.0 mi Calm Calm - N/A   Scattered Clouds
2:53 PM 21.9 °F - 14.0 °F 72% 30.24 in 10.0 mi Calm Calm - N/A   Partly Cloudy
3:53 PM 23.0 °F 17.0 °F 14.0 °F 68% 30.23 in 10.0 mi South 4.6 mph - N/A   Partly Cloudy
4:53 PM 23.0 °F 15.8 °F 17.1 °F 78% 30.22 in 10.0 mi SSE 5.8 mph - N/A   Scattered Clouds
6:53 PM 19.9 °F 14.9 °F 17.1 °F 89% 30.21 in 10.0 mi SSE 3.5 mph - N/A   Mostly Cloudy
8:53 PM 17.1 °F - 14.0 °F 88% 30.21 in 10.0 mi Calm Calm - N/A   Scattered Clouds
9:53 PM 19.0 °F - 16.0 °F 88% 30.20 in 10.0 mi Calm Calm - N/A   Overcast
10:53 PM 19.0 °F - 16.0 °F 88% 30.20 in 10.0 mi Calm Calm - N/A   Overcast
11:53 PM 18.0 °F 11.1 °F 15.1 °F 88% 30.20 in 5.0 mi NW 4.6 mph - N/A Snow Light Snow